• In Hungary
  • List of Countries
  • For 7 days
  • Water Temperature
  • Satellite Maps
  • Weather Map
  • News
  • Weather Widgets
  • user-avatar
    Login

    Hourly Weather Boguszyce

    Today, 19 November, Sunday

    Time Temperature Precipitation Wind Pressure Humidity
    00:00 +2°C° 0.2 mm 7 mps 743 mmHg 81%
    01:00 +2°C° 0 mm 7 mps 742 mmHg 83%
    02:00 +2°C° 0.3 mm 7 mps 742 mmHg 83%
    03:00 +1°C° 0.3 mm 8 mps 742 mmHg 82%
    04:00 +1°C° 0.3 mm 8 mps 741 mmHg 82%
    05:00 +1°C° 0.3 mm 8 mps 741 mmHg 82%
    06:00 +1°C° 0.3 mm 8 mps 741 mmHg 82%
    07:00 +2°C° 0 mm 7 mps 740 mmHg 81%
    08:00 +1°C° 0.3 mm 8 mps 740 mmHg 80%
    09:00 +1°C° 0.3 mm 8 mps 740 mmHg 78%
    10:00 +1°C° 0.3 mm 9 mps 740 mmHg 77%
    11:00 +1°C° 0.5 mm 9 mps 740 mmHg 78%
    12:00 +2°C° 0.5 mm 8 mps 739 mmHg 78%
    13:00 +2°C° 0.5 mm 8 mps 739 mmHg 79%
    14:00 +3°C° 0.4 mm 7 mps 739 mmHg 79%
    15:00 +3°C° 0.4 mm 7 mps 739 mmHg 78%
    16:00 +3°C° 0.4 mm 6 mps 739 mmHg 78%
    17:00 +2°C° 0.2 mm 6 mps 739 mmHg 79%
    18:00 +2°C° 0.2 mm 5 mps 739 mmHg 80%
    19:00 +2°C° 0.2 mm 5 mps 739 mmHg 81%
    20:00 +2°C° 0.4 mm 5 mps 739 mmHg 83%
    21:00 +2°C° 0.4 mm 5 mps 740 mmHg 84%
    22:00 +2°C° 0.4 mm 5 mps 740 mmHg 86%
    23:00 +2°C° 0.7 mm 6 mps 741 mmHg 85%

    Tomorrow, 20 November, Monday

    Time Temperature Precipitation Wind Pressure Humidity
    00:00 +2°C° 0.7 mm 7 mps 742 mmHg 84%
    01:00 +2°C° 0.7 mm 8 mps 743 mmHg 83%
    02:00 +1°C° 0.2 mm 8 mps 743 mmHg 82%
    03:00 +2°C° 0.2 mm 7 mps 744 mmHg 81%
    04:00 0°C° 0.2 mm 7 mps 745 mmHg 80%
    05:00 0°C° 0 mm 7 mps 745 mmHg 79%
    06:00 0°C° 0 mm 7 mps 746 mmHg 78%
    07:00 -1°C° 0 mm 6 mps 746 mmHg 77%
    08:00 -1°C° 0 mm 6 mps 747 mmHg 75%
    09:00 -1°C° 0 mm 6 mps 748 mmHg 73%
    10:00 -1°C° 0 mm 6 mps 748 mmHg 71%
    11:00 +1°C° 0 mm 6 mps 748 mmHg 70%
    12:00 +1°C° 0 mm 5 mps 748 mmHg 69%
    13:00 +1°C° 0 mm 5 mps 748 mmHg 69%
    14:00 +1°C° 0 mm 5 mps 749 mmHg 71%
    15:00 0°C° 0 mm 4 mps 749 mmHg 73%
    16:00 +1°C° 0 mm 3 mps 749 mmHg 76%
    17:00 +1°C° 0 mm 3 mps 749 mmHg 78%
    18:00 +1°C° 0 mm 2 mps 749 mmHg 80%
    19:00 +2°C° 0 mm 1 mps 749 mmHg 82%
    20:00 +2°C° 0 mm 1 mps 749 mmHg 82%
    21:00 +2°C° 0 mm 1 mps 749 mmHg 83%
    22:00 +2°C° 0 mm 1 mps 749 mmHg 83%
    23:00 +1°C° 0 mm 2 mps 749 mmHg 84%

    Day after tomorrow, 21 November, Tuesday

    Time Temperature Precipitation Wind Pressure Humidity
    00:00 +1°C° 0 mm 2 mps 749 mmHg 84%
    01:00 +1°C° 0 mm 2 mps 749 mmHg 85%
    02:00 +1°C° 0 mm 2 mps 748 mmHg 85%
    03:00 -1°C° 0 mm 2 mps 748 mmHg 86%
    04:00 -1°C° 0 mm 2 mps 748 mmHg 86%
    05:00 -1°C° 0 mm 2 mps 748 mmHg 88%
    06:00 -1°C° 0 mm 2 mps 748 mmHg 89%
    07:00 -1°C° 0 mm 2 mps 748 mmHg 91%
    08:00 +1°C° 0 mm 2 mps 748 mmHg 89%
    09:00 +1°C° 0 mm 2 mps 748 mmHg 87%
    10:00 +2°C° 0 mm 2 mps 748 mmHg 86%
    11:00 +3°C° 0 mm 2 mps 748 mmHg 84%
    12:00 +4°C° 0 mm 1 mps 748 mmHg 82%
    13:00 +5°C° 0 mm 1 mps 748 mmHg 81%
    14:00 +4°C° 0 mm 1 mps 748 mmHg 84%
    15:00 +3°C° 0 mm 1 mps 748 mmHg 88%
    16:00 +2°C° 0 mm 1 mps 748 mmHg 91%
    17:00 +2°C° 0 mm 1 mps 749 mmHg 92%
    18:00 +2°C° 0 mm 1 mps 749 mmHg 92%
    19:00 +2°C° 0 mm 1 mps 749 mmHg 93%
    20:00 -1°C° 0 mm 2 mps 749 mmHg 93%
    21:00 -1°C° 0 mm 2 mps 749 mmHg 94%
    22:00 -1°C° 0 mm 2 mps 750 mmHg 94%
    23:00 +1°C° 0 mm 2 mps 749 mmHg 93%

    22 November, Wednesday

    Time Temperature Precipitation Wind Pressure Humidity
    00:00 0°C° 0 mm 3 mps 749 mmHg 91%
    01:00 0°C° 0 mm 3 mps 749 mmHg 90%
    02:00 0°C° 0.1 mm 4 mps 749 mmHg 89%
    03:00 0°C° 0.1 mm 5 mps 748 mmHg 88%
    04:00 0°C° 0.1 mm 5 mps 748 mmHg 86%
    05:00 -1°C° 0.7 mm 6 mps 747 mmHg 87%
    06:00 -1°C° 0.7 mm 7 mps 747 mmHg 87%
    07:00 0°C° 0.7 mm 7 mps 746 mmHg 87%
    08:00 0°C° 0.3 mm 7 mps 746 mmHg 88%
    09:00 +2°C° 0.3 mm 7 mps 745 mmHg 90%
    10:00 +3°C° 0.3 mm 7 mps 745 mmHg 91%
    11:00 +3°C° 1.6 mm 7 mps 745 mmHg 91%
    12:00 +4°C° 1.6 mm 7 mps 744 mmHg 92%
    13:00 +4°C° 1.6 mm 7 mps 744 mmHg 93%
    14:00 +5°C° 0.3 mm 7 mps 744 mmHg 92%
    15:00 +6°C° 0.3 mm 7 mps 744 mmHg 92%
    16:00 +6°C° 0.3 mm 7 mps 745 mmHg 92%
    17:00 +6°C° 0.2 mm 7 mps 745 mmHg 92%
    18:00 +8°C° 0.2 mm 7 mps 745 mmHg 92%
    19:00 +8°C° 0.2 mm 7 mps 746 mmHg 93%
    20:00 +8°C° 0.1 mm 7 mps 746 mmHg 92%
    21:00 +8°C° 0.1 mm 7 mps 747 mmHg 92%
    22:00 +8°C° 0.1 mm 7 mps 747 mmHg 91%
    23:00 +7°C° 0 mm 6 mps 747 mmHg 91%

    23 November, Thursday

    Time Temperature Precipitation Wind Pressure Humidity
    00:00 +7°C° 0 mm 6 mps 747 mmHg 92%
    01:00 +5°C° 0 mm 6 mps 748 mmHg 92%
    02:00 +5°C° 0 mm 6 mps 748 mmHg 90%
    03:00 +5°C° 0 mm 6 mps 748 mmHg 88%
    04:00 +5°C° 0 mm 6 mps 748 mmHg 86%
    05:00 +5°C° 0 mm 6 mps 748 mmHg 83%
    06:00 +5°C° 0 mm 6 mps 748 mmHg 80%
    07:00 +5°C° 0 mm 7 mps 748 mmHg 77%
    08:00 +5°C° 0 mm 7 mps 748 mmHg 73%
    09:00 +5°C° 0 mm 7 mps 748 mmHg 70%
    10:00 +6°C° 0 mm 7 mps 748 mmHg 67%
    11:00 +6°C° 0 mm 7 mps 748 mmHg 65%
    12:00 +8°C° 0 mm 7 mps 748 mmHg 63%
    13:00 +8°C° 0 mm 7 mps 748 mmHg 61%
    14:00 +8°C° 0 mm 7 mps 748 mmHg 64%
    15:00 +6°C° 0 mm 7 mps 748 mmHg 67%
    16:00 +6°C° 0 mm 7 mps 749 mmHg 70%
    17:00 +6°C° 0 mm 7 mps 749 mmHg 73%
    18:00 +6°C° 0 mm 7 mps 749 mmHg 75%
    19:00 +7°C° 0 mm 6 mps 750 mmHg 78%
    20:00 +7°C° 0 mm 6 mps 750 mmHg 80%
    21:00 +7°C° 0 mm 6 mps 750 mmHg 83%
    22:00 +7°C° 0 mm 6 mps 751 mmHg 85%
    23:00 +7°C° 0 mm 6 mps 751 mmHg 87%

    24 November, Friday

    Time Temperature Precipitation Wind Pressure Humidity
    00:00 +7°C° 0 mm 6 mps 751 mmHg 88%
    01:00 +7°C° 0 mm 6 mps 751 mmHg 90%
    02:00 +7°C° 0 mm 6 mps 751 mmHg 90%
    03:00 +5°C° 0 mm 6 mps 752 mmHg 90%
    04:00 +6°C° 0 mm 5 mps 752 mmHg 91%
    05:00 +6°C° 0 mm 5 mps 752 mmHg 90%
    06:00 +6°C° 0 mm 5 mps 752 mmHg 90%
    07:00 +6°C° 0 mm 5 mps 752 mmHg 90%
    08:00 +5°C° 0 mm 6 mps 752 mmHg 87%
    09:00 +7°C° 0 mm 6 mps 753 mmHg 85%
    10:00 +7°C° 0 mm 6 mps 753 mmHg 82%
    11:00 +8°C° 0 mm 6 mps 753 mmHg 80%
    12:00 +9°C° 0 mm 6 mps 753 mmHg 77%
    13:00 +9°C° 0 mm 5 mps 752 mmHg 75%
    14:00 +9°C° 0 mm 5 mps 752 mmHg 77%
    15:00 +8°C° 0 mm 5 mps 752 mmHg 80%
    16:00 +8°C° 0 mm 5 mps 752 mmHg 82%
    17:00 +8°C° 0 mm 5 mps 753 mmHg 82%
    18:00 +8°C° 0 mm 5 mps 753 mmHg 82%
    19:00 +8°C° 0 mm 5 mps 753 mmHg 82%
    20:00 +7°C° 0 mm 5 mps 753 mmHg 82%
    21:00 +7°C° 0 mm 5 mps 753 mmHg 81%
    22:00 +7°C° 0 mm 5 mps 753 mmHg 81%
    23:00 +7°C° 0 mm 5 mps 753 mmHg 78%
    Show more